Location: Colonia Mina de C?rbuni
(46.1667°N, 22.7167°E)
Time: 15:01:00
(UTC+00:00)

S-56A Canister/Altair - Pass Details

Date: 18 April 2024
Orbit: 638 x 2488 km, 38.9° (Epoch: 26 May)

Event Time Altitude Azimuth Distance (km) Brightness Sun altitude
Rises 18:02:52 0° 258° (WSW) 3,635 11.9 -7.6°
Reaches altitude 10° 18:05:09 10° 253° (WSW) 2,874 11.2 -8.0°
Maximum altitude 18:12:02 54° 178° (S) 1,648 9.0 -9.0°
Enters shadow 18:21:59 11° 107° (ESE) 4,127 10.6 -10.6°
